Weather History for Crestview, FL

Change the Weather History Date:

Thursday, January 24, 2013

  Actual Average Record
Temperature  
Mean Temperature 56 °F -  
Max Temperature 75 °F 62 °F 79 °F (1949)
Min Temperature 37 °F 38 °F 16 °F (2003)
Degree Days  
Heating Degree Days 9    
Growing Degree Days 6 (Base 50)    
Moisture  
Dew Point 47 °F    
Average Humidity 82    
Maximum Humidity 100    
Minimum Humidity 40    
Precipitation  
Precipitation 0.00 in - - ()
Sea Level Pressure  
Sea Level Pressure 30.30 in    
Wind  
Wind Speed 2 mph (West)    
Max Wind Speed 12 mph    
Max Gust Speed 18 mph    
Visibility 6 miles    
Events Fog    
Averages and records for this station are not official NWS values.
T = Trace of Precipitation, MM = Missing Value Source: NWS Daily Summary

Daily Weather History Graph

Daily Weather History Graph

Search for Another Location

Airport:

Trip Planner

Search our weather history database for the weather conditions in past years. The results will help you decide how hot, cold, wet, or windy it might be!

Date:

Astronomy

Jan. 24, 2013 Rise Set
Actual Time 6:41 AM CST 5:15 PM CST
Civil Twilight 6:15 AM CST 5:40 PM CST
Nautical Twilight 5:46 AM CST 6:10 PM CST
Astronomical Twilight 5:18 AM CST 6:38 PM CST
Moon 3:18 PM CST (1/24) 4:36 AM CST (1/24)
Length of Visible Light 11h 24m
Length of Day
10h 33m
Waxing Gibbous, 94% of the Moon is Illuminated
Jan 24
Waxing Gibbous
Jan 26
Full
Feb 3
Last Quarter
Feb 10
New
Feb 17
First Quarter

Hourly Weather History & Observations

Time (CST) Temp. Windchill Dew Point Humidity Pressure Visibility Wind Dir Wind Speed Gust Speed Precip Events Conditions
12:53 AM 41.0 °F - 39.0 °F 93% 30.31 in 7.0 mi Calm Calm - N/A   Clear
1:53 AM 39.9 °F - 39.0 °F 97% 30.30 in 5.0 mi Calm Calm - N/A   Clear
2:53 AM 39.9 °F - 37.9 °F 93% 30.30 in 6.0 mi Calm Calm - N/A   Clear
3:53 AM 39.0 °F 36.8 °F 37.9 °F 96% 30.30 in 6.0 mi West 3.5 mph - N/A   Clear
4:53 AM 39.9 °F - 37.9 °F 93% 30.31 in 6.0 mi Calm Calm - N/A   Clear
5:53 AM 39.0 °F - 37.0 °F 93% 30.33 in 6.0 mi Calm Calm - N/A   Clear
6:53 AM 37.9 °F 34.4 °F 37.0 °F 97% 30.32 in 4.0 mi SSW 4.6 mph - N/A   Clear
7:53 AM 54.0 °F - 50.0 °F 86% 30.33 in 9.0 mi West 6.9 mph - N/A   Clear
8:53 AM 59.0 °F - 51.1 °F 75% 30.34 in 10.0 mi West 9.2 mph - N/A   Clear
9:53 AM 64.9 °F - 52.0 °F 63% 30.35 in 10.0 mi West 8.1 mph - N/A   Clear
10:53 AM 69.1 °F - 53.1 °F 57% 30.33 in 10.0 mi WNW 11.5 mph 18.4 mph N/A   Clear
11:53 AM 70.0 °F - 52.0 °F 53% 30.30 in 10.0 mi West 10.4 mph - N/A   Clear
12:53 PM 72.0 °F - 51.1 °F 48% 30.27 in 10.0 mi Variable 5.8 mph - N/A   Mostly Cloudy
1:53 PM 75.0 °F - 48.9 °F 40% 30.25 in 10.0 mi West 8.1 mph - N/A   Mostly Cloudy
2:53 PM 71.1 °F - 50.0 °F 47% 30.25 in 10.0 mi West 4.6 mph - N/A   Clear
3:53 PM 69.1 °F - 52.0 °F 54% 30.25 in 10.0 mi North 3.5 mph - N/A   Partly Cloudy
4:53 PM 64.0 °F - 53.1 °F 67% 30.25 in 10.0 mi Calm Calm - N/A   Clear
5:53 PM 59.0 °F - 53.1 °F 81% 30.26 in 9.0 mi South 4.6 mph - N/A   Clear
6:53 PM 57.9 °F - 53.1 °F 84% 30.28 in 10.0 mi Calm Calm - N/A   Clear
7:53 PM 52.0 °F - 48.9 °F 89% 30.29 in 7.0 mi Calm Calm - N/A   Clear
8:53 PM 51.1 °F - 50.0 °F 96% 30.30 in 5.0 mi Calm Calm - N/A   Partly Cloudy
9:53 PM 50.0 °F - 48.0 °F 93% 30.30 in 4.0 mi Calm Calm - N/A   Partly Cloudy
10:53 PM 48.0 °F - 46.0 °F 93% 30.30 in 2.5 mi Calm Calm - N/A   Clear
11:05 PM 46.4 °F - 46.4 °F 100% 30.30 in 4.0 mi Calm Calm - N/A   Clear
11:20 PM 48.2 °F - 46.4 °F 93% 30.30 in 3.0 mi Calm Calm - N/A   Scattered Clouds
11:26 PM 46.4 °F - 46.4 °F 100% 30.30 in 1.8 mi Calm Calm - N/A   Mostly Cloudy
11:32 PM 46.4 °F - 44.6 °F 93% 30.30 in 0.5 mi Calm Calm - N/A Fog Fog
11:42 PM 46.4 °F - 44.6 °F 93% 30.30 in 1.0 mi Calm Calm - N/A   Mist
11:49 PM 46.4 °F - 46.4 °F 100% 30.30 in 1.5 mi Calm Calm - N/A   Partly Cloudy
11:53 PM 46.0 °F - 45.0 °F 96% 30.30 in 0.8 mi Calm Calm - N/A   Mist
11:57 PM 46.4 °F - 44.6 °F 93% 30.29 in 1.0 mi Calm Calm - N/A   Clear